#timestamp,LO_Frequency,Hit,StdDev 
1587895215.0,286047003.3,N
1587895215.9,286047003.3,N
1587895235.8,286047003.9,N
1587895255.6,286047001.5,N
1587895275.5,286047003.8,N
1587895295.3,286047001.4,N
1587895315.1,286047003.7,N
1587895335.9,286047005.3,N
1587895355.7,286047005.0,N
1587895375.6,286047003.3,N
1587895395.4,286047004.4,N
1587895415.2,286047004.3,N
1587895435.1,286047003.4,N
1587895436.0,286047003.4,N
1587895455.8,286047005.2,N
1587895475.6,286047003.7,N
1587895495.5,286047005.1,N
1587895515.3,286047007.2,Y
1587895535.2,286047006.0,P
1587895555.9,286047003.7,N
1587895575.7,286047001.9,N
1587895595.6,286047003.7,N
1587895615.4,286047002.1,N
1587895635.3,286047000.3,N
1587895655.1,286046996.1,N
1587895656.0,286046996.1,N
1587895675.8,286046992.3,N
1587895695.7,286046992.6,N
1587895715.5,286046990.1,N
1587895735.3,286046994.5,N
1587895755.2,286046997.9,N
1587895775.0,286046997.3,N
1587895775.9,286046997.3,N
1587895795.8,286046996.7,N
1587895815.6,286046999.5,N
1587895835.4,286046998.5,N
1587895855.3,286047000.1,N
1587895875.1,286046998.1,N
1587895895.9,286046998.4,N
1587895915.7,286047000.7,N
1587895935.5,286046999.7,N
1587895955.4,286047000.4,N
1587895975.2,286047000.6,N
1587895995.0,286046999.9,N
1587895996.0,286046999.9,N
1587896015.8,286047001.0,N
1587896035.6,286046999.7,N
1587896055.5,286047003.8,N
1587896075.3,286047004.2,N
1587896095.1,286047003.8,N
1587896115.9,286047006.0,N
1587896135.7,286047004.1,N
1587896155.6,286047001.6,N
1587896175.4,286047001.5,N
1587896195.2,286047001.8,N
1587896215.1,286047002.1,N
1587896216.0,286047002.1,N
1587896235.8,286047004.1,N
1587896255.7,286047000.9,N
1587896275.5,286047000.8,N
1587896295.3,286047000.2,N
1587896315.2,286047000.2,N
1587896335.0,286047002.7,N
1587896335.9,286047002.7,N
1587896355.7,286047000.0,N
1587896375.6,286047000.0,N
1587896395.4,286047000.1,N
1587896415.3,286047000.3,N
1587896435.1,286047002.7,N
1587896436.0,286047002.7,N
1587896455.8,286046998.8,N
1587896475.7,286046998.2,N
1587896495.5,286046998.6,N
1587896515.4,286047000.0,N
1587896535.2,286046999.7,N
1587896555.0,286046998.5,N
1587896555.9,286046998.5,N
1587896575.8,286047000.7,N
1587896595.6,286046998.8,N
1587896615.4,286046999.1,N
1587896635.3,286047001.1,N
1587896655.1,286046996.6,N
1587896675.9,286047001.0,N
1587896695.7,286047000.1,N
1587896715.5,286047000.4,N
1587896735.4,286047000.4,N
1587896755.2,286047000.7,N
1587896775.1,286046998.1,N
1587896776.0,286046998.1,N
1587896795.8,286046998.3,N
1587896815.6,286046998.9,N
1587896835.5,286046997.3,N
1587896855.3,286046998.4,N
1587896875.1,286047002.8,N
1587896895.9,286047002.8,N
1587896915.7,286047000.2,N
1587896935.6,286047002.7,N
1587896955.4,286047002.1,N
1587896975.2,286047001.0,N
1587896995.1,286047000.3,N
1587896996.0,286047000.3,N
1587897015.8,286046999.9,N
1587897035.7,286047001.3,N
1587897055.5,286047001.7,N
1587897075.3,286047001.8,N
1587897095.2,286047002.2,N
1587897115.0,286047002.8,N
1587897115.9,286047002.8,N
1587897135.7,286047000.8,N
1587897155.6,286047000.8,N
1587897175.4,286046999.7,N
1587897195.3,286046998.1,N
1587897215.1,286047000.3,N
1587897235.8,286047000.2,N
1587897255.7,286047002.4,N
1587897275.5,286047001.0,N
1587897295.4,286047002.6,N
1587897315.2,286047001.9,N
1587897335.0,286046999.8,N
1587897335.9,286046999.8,N
1587897355.8,286047001.0,N
1587897375.6,286047000.4,N
1587897395.4,286047000.1,N
1587897415.3,286046998.3,N
1587897435.1,286046999.4,N
1587897455.9,286047001.0,N
1587897475.7,286046999.2,N
1587897495.5,286046997.2,N
1587897515.4,286046997.7,N
1587897535.2,286046995.9,N
1587897555.1,286046996.1,N
1587897556.0,286046996.1,N
1587897575.8,286046998.0,N
1587897595.6,286046997.5,N
1587897615.5,286046995.4,N
1587897635.3,286046995.5,N
1587897655.2,286046996.4,N
1587897675.9,286046993.9,N
1587897695.7,286046994.4,N
1587897715.6,286046993.8,N
1587897735.4,286046994.5,N
1587897755.2,286046992.2,Y
1587897775.1,286046993.3,P
1587897776.0,286046993.3,N
1587897795.8,286046994.0,N
1587897815.7,286046993.3,Y
1587897835.5,286046999.0,P
1587897855.3,286046998.8,N
1587897875.2,286046997.0,N
1587897895.0,286046997.4,N
1587897895.9,286046997.4,N
1587897915.8,286046997.7,N
1587897935.6,286046994.9,Y
1587897955.4,286047001.2,P
1587897975.3,286046998.3,N
1587897995.1,286046999.3,N
1587898015.9,286046998.6,N
1587898035.7,286047000.5,N
1587898055.5,286047000.9,N
1587898075.4,286046999.9,N
1587898095.2,286046999.7,N
1587898115.0,286047000.6,N
1587898115.9,286047000.6,N
1587898135.8,286047000.4,N
1587898155.6,286047000.9,N
1587898175.5,286047000.8,N
1587898195.3,286047001.0,N
1587898215.1,286047002.7,N
1587898235.9,286047000.5,N
1587898255.7,286046998.1,N
1587898275.6,286047001.1,N
1587898295.4,286047000.9,N
1587898315.2,286047001.0,N
1587898335.1,286047001.1,N
1587898336.0,286047001.1,N
1587898355.8,286046999.3,N
1587898375.7,286046996.6,N
1587898395.5,286046999.6,N
1587898415.3,286046999.5,N
1587898435.2,286046998.4,N
1587898455.0,286046996.6,N
1587898455.9,286046996.6,N
1587898475.7,286047000.9,N
1587898495.6,286047000.3,N
1587898515.4,286047000.4,N
1587898535.3,286047000.6,N
1587898555.1,286046999.9,N
1587898575.8,286047000.3,N
1587898595.7,286047004.1,N
1587898615.5,286047002.9,N
1587898635.4,286047001.7,N
1587898655.2,286047002.8,N
1587898675.0,286046999.7,N
1587898675.9,286046999.7,N
1587898695.8,286047001.4,N
1587898715.6,286047001.9,N
1587898735.5,286047000.5,N
1587898755.3,286047001.8,N
1587898775.1,286047003.9,N
1587898795.9,286047001.6,N
